TimePDT,TemperatureF,Dew PointF,Humidity,Sea Level PressureIn,VisibilityMPH,Wind Direction,Wind SpeedMPH,Gust SpeedMPH,PrecipitationIn,Events,Conditions,WindDirDegrees,DateUTC
12:53 AM,57.0,46.9,69,30.06,10.0,North,3.5,-,N/A,,Clear,350,2013-08-31 07:53:00
1:53 AM,55.0,48.0,77,30.06,10.0,Calm,Calm,-,N/A,,Clear,0,2013-08-31 08:53:00
2:53 AM,52.0,46.0,80,30.06,10.0,Calm,Calm,-,N/A,,Clear,0,2013-08-31 09:53:00
3:53 AM,52.0,46.0,80,30.06,10.0,Calm,Calm,-,N/A,,Clear,0,2013-08-31 10:53:00
4:53 AM,51.1,46.0,83,30.06,10.0,Calm,Calm,-,N/A,,Clear,0,2013-08-31 11:53:00
5:53 AM,48.9,44.1,83,30.08,10.0,North,3.5,-,N/A,,Clear,350,2013-08-31 12:53:00
6:53 AM,51.1,45.0,80,30.09,10.0,Calm,Calm,-,N/A,,Clear,0,2013-08-31 13:53:00
7:53 AM,57.9,50.0,75,30.08,10.0,ESE,3.5,-,N/A,,Clear,120,2013-08-31 14:53:00
8:53 AM,63.0,50.0,63,30.08,10.0,Calm,Calm,-,N/A,,Clear,0,2013-08-31 15:53:00
9:53 AM,66.9,51.1,57,30.06,10.0,West,3.5,-,N/A,,Clear,270,2013-08-31 16:53:00
10:53 AM,73.0,48.9,42,30.04,10.0,Variable,3.5,-,N/A,,Clear,0,2013-08-31 17:53:00
11:53 AM,78.1,50.0,37,30.02,10.0,Calm,Calm,-,N/A,,Clear,0,2013-08-31 18:53:00
12:53 PM,84.0,46.9,27,29.99,10.0,SE,6.9,-,0.00,,Clear,140,2013-08-31 19:53:00
1:53 PM,86.0,44.1,23,29.98,10.0,East,4.6,-,N/A,,Clear,90,2013-08-31 20:53:00
2:53 PM,88.0,44.1,22,29.95,10.0,East,8.1,-,N/A,,Clear,90,2013-08-31 21:53:00
3:53 PM,88.0,45.0,22,29.93,10.0,East,11.5,-,N/A,,Clear,80,2013-08-31 22:53:00
4:53 PM,89.1,45.0,22,29.90,10.0,East,11.5,-,N/A,,Clear,80,2013-08-31 23:53:00
5:53 PM,88.0,46.9,24,29.89,10.0,East,6.9,-,N/A,,Clear,90,2013-09-01 00:53:00
6:53 PM,82.9,52.0,34,29.88,10.0,East,4.6,-,N/A,,Clear,90,2013-09-01 01:53:00
7:53 PM,73.9,50.0,43,29.88,10.0,East,5.8,-,N/A,,Clear,90,2013-09-01 02:53:00
8:53 PM,66.9,50.0,54,29.90,10.0,Calm,Calm,-,N/A,,Clear,0,2013-09-01 03:53:00
9:53 PM,68.0,48.0,49,29.89,10.0,NNE,3.5,-,N/A,,Clear,20,2013-09-01 04:53:00
10:53 PM,64.0,48.0,56,29.89,10.0,NNW,4.6,-,N/A,,Clear,330,2013-09-01 05:53:00
11:53 PM,61.0,48.0,62,29.89,10.0,Calm,Calm,-,N/A,,Clear,0,2013-09-01 06:53:00